This is the latest recevied weather packets stored in our database for station/object KE8WMS. If no packets are shown the sender has not sent any weather packets the latest 10 day(s).
| Time | Temp. | Humidity | Pressure | Rain* | Wind** | Luminosity | Snow |
|---|---|---|---|---|---|---|---|
| 1778072145 | 7.78° C | 99% | 1006.6 hPa | 0 mm | - | 95 W/m² | - |
| 1778071843 | 7.78° C | 99% | 1006.5 hPa | 0 mm | - | 105 W/m² | - |
| 1778071540 | 7.78° C | 99% | 1006.5 hPa | 0 mm | - | 117 W/m² | - |
| 1778071238 | 7.78° C | 99% | 1006.6 hPa | 0 mm | - | 58 W/m² | - |
| 1778070935 | 7.78° C | 99% | 1006.2 hPa | 0 mm | - | 78 W/m² | - |
| 1778070634 | 7.78° C | 99% | 1006.3 hPa | 0 mm | - | 55 W/m² | - |
| 1778070330 | 7.78° C | 99% | 1006.1 hPa | 0 mm | - | 71 W/m² | - |
| 1778070028 | 7.78° C | 99% | 1006.2 hPa | 0 mm | - | 38 W/m² | - |
| 1778069726 | 7.78° C | 99% | 1006.3 hPa | 0 mm | - | 34 W/m² | - |
| 1778069421 | 7.78° C | 99% | 1006.4 hPa | 0 mm | - | 27 W/m² | - |
| 1778069120 | 7.78° C | 99% | 1006.3 hPa | 0 mm | - | 22 W/m² | - |
| 1778068817 | 7.78° C | 99% | 1006.6 hPa | 0 mm | - | 26 W/m² | - |
| 1778068515 | 7.78° C | 99% | 1006.1 hPa | 0 mm | - | 30 W/m² | - |
| 1778068213 | 7.78° C | 99% | 1006.4 hPa | 0 mm | - | 21 W/m² | - |
| 1778067909 | 7.78° C | 99% | 1006.3 hPa | 0 mm | - | 16 W/m² | - |
| 1778067608 | 7.78° C | 99% | 1005.9 hPa | 0 mm | - | 19 W/m² | - |
| 1778067306 | 7.78° C | 99% | 1005.8 hPa | 0 mm | - | 20 W/m² | - |
| 1778067002 | 7.22° C | 99% | 1006.3 hPa | 0 mm | - | 16 W/m² | - |
| 1778066699 | 7.22° C | 99% | 1006 hPa | 0 mm | - | 14 W/m² | - |
| 1778066396 | 7.22° C | 99% | 1005.8 hPa | 0 mm | - | 14 W/m² | - |
| 1778066095 | 7.22° C | 99% | 1005.8 hPa | 0 mm | - | 10 W/m² | - |
| 1778065791 | 7.22° C | 99% | 1005.6 hPa | 0 mm | - | 10 W/m² | - |
| 1778065489 | 7.22° C | 99% | 1005.7 hPa | 0 mm | - | 5 W/m² | - |
| 1778065185 | 7.22° C | 99% | 1005.2 hPa | 0 mm | - | 6 W/m² | - |
| 1778064882 | 7.22° C | 99% | 1004.9 hPa | 0 mm | - | 7 W/m² | - |
* Rain latest hour (hover to see other rain measurements)
** Current wind speed in m/s (hover to see current wind gust speed)